(479279) = 2013 GK12

Discovered at Catalina on 2013-03-17 by CSS.

Orbit

Orbit type: Hungaria

Note: WebGL enabled browser required.

epoch2024-03-31.0
epoch JD2460400.5
perihelion date2025-02-16.10704
perihelion JD2460722.60704
argument of perihelion (°)325.03000
ascending node (°)77.60636
inclination (°)19.22174
eccentricity0.0479667
perihelion distance (AU)1.7879960
Tisserand w.r.t. Jupiter3.9
ΔV w.r.t. Earth (km/sec)10.3
semimajor axis (AU)1.8780814
mean anomaly (°)236.65190
mean daily motion (°/day)0.38294130
aphelion distance (AU)1.968
period (years)2.57
P-vector [x]0.70445992
P-vector [y]0.70280024
P-vector [z]0.09903559
Q-vector [x]-0.63272428
Q-vector [y]0.55865191
Q-vector [z]0.53625369
absolute magnitude17.87
phase slope0.15
uncertainty0
referenceMPEC 2024-C37
observations used285
oppositions8
arc length (days)7272
first opposition used2003
last opposition used2023
residual rms (arc-secs)0.74
perturbers coarse indicatorM-v
perturbers precise indicator003Ek
first observation date used2003-05-13.0
last observation date used2023-04-10.0
computer nameMPCLINUX
JD of orbit computation2457633.328861
perihelion JD uncertainty (days)1.9116E-04
argument of perihelion uncertainty (°)8.6576E-05
ascending node uncertainty (°)1.5344E-05
inclination uncertainty (°)6.7892E-06
eccentricity uncertainty 1.1799E-07
perihelion distance uncertainty (AU)2.0749E-07
Minimum Orbit Intersection Distances (in AU)
for orbit epoch: 2460200.5, reference: E2024-C37
Mercury1.45258
Venus1.07428
Earth0.81238
Mars0.25548
Jupiter3.23118
Saturn7.24629
Uranus16.6275
Neptune28.0863

Observations

297 total observations over interval: 2003 05 13.46681 – 2023 04 10.218426
These data are available for download (format description).

Date (UT) J2000 RA J2000 Dec Magn Location Ref
2003 05 13.46681 16 18 36.03 -07 37 56.8 19.2 R 608 – Haleakala-AMOS MPS 725652
2003 05 13.47721 16 18 35.18 -07 37 58.9 19.2 R 608 – Haleakala-AMOS MPS 725652
2003 05 13.48870 16 18 34.23 -07 38 04.5 18.6 R 608 – Haleakala-AMOS MPS 725652
2011 06 29.66955 20 38 21.62 -39 42 40.1 19.6 V E12 – Siding Spring Survey MPS 542350
2011 06 29.67845 20 38 21.19 -39 42 50.7 19.8 V E12 – Siding Spring Survey MPS 542350
2011 06 29.68723 20 38 20.79 -39 43 01.7 19.9 V E12 – Siding Spring Survey MPS 542350
2013 03 17.37189 13 18 03.27 +31 40 12.7 19.7 V 703 – Catalina Sky Survey MPS 464125
2013 03 17.38192 13 18 02.34 +31 40 16.3 20.7 V 703 – Catalina Sky Survey MPS 464125
2013 03 17.39205 13 18 01.58 +31 40 20.9 20.0 V 703 – Catalina Sky Survey MPS 464125
2013 03 17.40206 13 18 00.90 +31 40 25.0 20.8 V 703 – Catalina Sky Survey MPS 464125
2013 04 03.28434 12 55 41.18 +32 41 48.5 20.4 r I41 – Palomar Mountain--ZTF MPS 462830
2013 04 03.31390 12 55 38.60 +32 41 47.0 20.4 r I41 – Palomar Mountain--ZTF MPS 462830
2013 04 03.34324 12 55 36.04 +32 41 45.3 20.4 r I41 – Palomar Mountain--ZTF MPS 462830
2013 04 07.35004 12 50 04.50 +32 33 32.6 20.9 r I41 – Palomar Mountain--ZTF MPS 462830
2013 04 07.37968 12 50 01.98 +32 33 26.4 20.8 r I41 – Palomar Mountain--ZTF MPS 462830
2013 04 07.40948 12 49 59.44 +32 33 20.8 20.8 r I41 – Palomar Mountain--ZTF MPS 462830
2013 04 08.37004 12 48 41.64 +32 30 00.4 20.3 r I41 – Palomar Mountain--ZTF MPS 462830
2013 04 08.39903 12 48 39.20 +32 29 53.6 20.7 r I41 – Palomar Mountain--ZTF MPS 462830
2013 04 08.42837 12 48 36.79 +32 29 46.6 20.6 r I41 – Palomar Mountain--ZTF MPS 462830
2013 04 10.48266 12 45 53.211 +32 20 53.25 20.6 g F51 – Pan-STARRS 1, Haleakala MPS 462830
2013 04 10.49392 12 45 52.281 +32 20 49.85 20.7 g F51 – Pan-STARRS 1, Haleakala MPS 462830
2013 04 13.33504 12 42 14.29 +32 04 40.1 20.8 r I41 – Palomar Mountain--ZTF MPS 464125
2013 04 13.36464 12 42 11.96 +32 04 28.4 21.2 r I41 – Palomar Mountain--ZTF MPS 464125
2013 04 13.40390 12 42 08.92 +32 04 12.9 20.5 r I41 – Palomar Mountain--ZTF MPS 464125
2013 04 14.32740 12 41 00.70 +31 58 01.8 20.6 r I41 – Palomar Mountain--ZTF MPS 464125
2013 04 14.35694 12 40 58.43 +31 57 49.5 20.4 r I41 – Palomar Mountain--ZTF MPS 464125
2013 04 14.38707 12 40 56.13 +31 57 36.2 20.3 r I41 – Palomar Mountain--ZTF MPS 464126
2013 05 05.24520 12 22 36.39 +27 58 14.7 20.6 r I41 – Palomar Mountain--ZTF MPS 466954
2013 05 05.30034 12 22 34.55 +27 57 24.3 20.3 r I41 – Palomar Mountain--ZTF MPS 466954
2013 05 05.33079 12 22 33.62 +27 56 56.0 20.3 r I41 – Palomar Mountain--ZTF MPS 466954
2014 09 20.57583 04 01 22.597 -05 10 18.41 20.6 w F51 – Pan-STARRS 1, Haleakala MPS 542350
2014 09 20.58782 04 01 22.882 -05 10 19.38 20.7 w F51 – Pan-STARRS 1, Haleakala MPS 542350
2014 09 20.59983 04 01 23.163 -05 10 20.33 20.6 w F51 – Pan-STARRS 1, Haleakala MPS 542350
2014 09 20.61183 04 01 23.448 -05 10 21.27 20.8 w F51 – Pan-STARRS 1, Haleakala MPS 542350
2014 09 22.58334 04 02 11.162 -05 12 58.21 20.3 w F51 – Pan-STARRS 1, Haleakala MPS 542350
2014 09 22.59561 04 02 11.387 -05 12 59.20 20.3 w F51 – Pan-STARRS 1, Haleakala MPS 542350
2014 09 22.60790 04 02 11.615 -05 13 00.12 20.4 w F51 – Pan-STARRS 1, Haleakala MPS 542350
2014 09 22.62014 04 02 11.843 -05 13 01.11 20.5 w F51 – Pan-STARRS 1, Haleakala MPS 542350
2014 10 02.33164 04 03 44.36 -05 24 11.6 20.2 G G45 – Space Surveillance Telescope, Atom Site MPS 1610979
2014 10 02.37324 04 03 44.18 -05 24 13.5 20.8 G G45 – Space Surveillance Telescope, Atom Site MPS 1610979
2014 10 02.39505 04 03 44.04 -05 24 15.3 20.9 G G45 – Space Surveillance Telescope, Atom Site MPS 1610979
2014 10 02.42467 04 03 43.85 -05 24 16.5 20.6 G G45 – Space Surveillance Telescope, Atom Site MPS 1610979
2014 10 02.44713 04 03 43.66 -05 24 17.4 20.8 G G45 – Space Surveillance Telescope, Atom Site MPS 1610979
2014 10 28.29097 03 46 45.20 -04 48 26.7 19.8 V 703 – Catalina Sky Survey MPS 542350
2014 10 28.29656 03 46 44.78 -04 48 24.6 19.3 V 703 – Catalina Sky Survey MPS 542350
2014 10 28.30214 03 46 44.36 -04 48 23.6 19.7 V 703 – Catalina Sky Survey MPS 542350
2014 10 28.30773 03 46 43.81 -04 48 21.6 19.8 V 703 – Catalina Sky Survey MPS 542350
2014 10 28.94136 03 45 56.87 -04 45 18.7 19.3 R 113 – Volkssternwarte Drebach, Schoenbrunn MPS 542350
2014 10 28.95061 03 45 56.14 -04 45 17.4 19.7 R 113 – Volkssternwarte Drebach, Schoenbrunn MPS 542350
2014 10 28.95988 03 45 55.46 -04 45 15.0 19.3 R 113 – Volkssternwarte Drebach, Schoenbrunn MPS 542350
2014 10 29.46880 03 45 16.943 -04 42 33.73 19.3 w F51 – Pan-STARRS 1, Haleakala MPS 542350
2014 10 29.48117 03 45 15.949 -04 42 29.86 19.2 w F51 – Pan-STARRS 1, Haleakala MPS 542350
2014 11 04.23967 03 37 27.66 -04 06 30.0 18.6 V 703 – Catalina Sky Survey MPS 544312
2014 11 04.25474 03 37 26.31 -04 06 24.6 18.9 V 703 – Catalina Sky Survey MPS 544312
2014 11 04.26502 03 37 25.42 -04 06 20.4 19.0 V 703 – Catalina Sky Survey MPS 544312
2014 11 16.46298 03 18 48.466 -02 08 16.35 19.5 r F51 – Pan-STARRS 1, Haleakala MPS 545768
2014 11 16.47544 03 18 47.250 -02 08 07.53 19.7 r F51 – Pan-STARRS 1, Haleakala MPS 545768
2014 11 16.48751 03 18 46.087 -02 07 58.70 19.6 r F51 – Pan-STARRS 1, Haleakala MPS 545768
2014 11 16.49937 03 18 44.928 -02 07 50.32 19.7 r F51 – Pan-STARRS 1, Haleakala MPS 545768
2014 11 17.26615 03 17 33.78 -01 58 35.5 20.2 r G45 – Space Surveillance Telescope, Atom Site MPS 553239
2014 11 17.27585 03 17 32.79 -01 58 27.8 19.8 r G45 – Space Surveillance Telescope, Atom Site MPS 553239
2014 11 17.28127 03 17 32.25 -01 58 24.7 20.1 r G45 – Space Surveillance Telescope, Atom Site MPS 553239
2014 11 17.28542 03 17 31.91 -01 58 21.0 19.9 r G45 – Space Surveillance Telescope, Atom Site MPS 553239
2014 11 19.26776 03 14 28.31 -01 33 24.2 19.2 r G45 – Space Surveillance Telescope, Atom Site MPS 553239
2014 11 19.27201 03 14 27.93 -01 33 21.1 19.3 r G45 – Space Surveillance Telescope, Atom Site MPS 553239
2014 11 19.27743 03 14 27.38 -01 33 17.0 19.4 r G45 – Space Surveillance Telescope, Atom Site MPS 553239
2014 11 19.28158 03 14 26.99 -01 33 14.0 19.1 r G45 – Space Surveillance Telescope, Atom Site MPS 553239
2014 11 21.38143 03 11 15.22 -01 05 22.4 19.6 G G45 – Space Surveillance Telescope, Atom Site MPS 1610979
2014 11 21.38379 03 11 15.04 -01 05 19.8 20.0 G G45 – Space Surveillance Telescope, Atom Site MPS 1610979
2014 11 21.38767 03 11 14.71 -01 05 17.2 20.3 G G45 – Space Surveillance Telescope, Atom Site MPS 1610979
2014 11 21.38802 03 11 14.67 -01 05 17.2 19.7 G G45 – Space Surveillance Telescope, Atom Site MPS 1610979
2014 11 21.39390 03 11 14.11 -01 05 12.1 19.2 G G45 – Space Surveillance Telescope, Atom Site MPS 1610979
2014 11 22.41868 03 09 42.626 -00 51 03.81 19.7 w F51 – Pan-STARRS 1, Haleakala MPS 547806
2014 11 22.43355 03 09 41.268 -00 50 51.65 20.1 w F51 – Pan-STARRS 1, Haleakala MPS 547806
2014 11 22.44835 03 09 39.867 -00 50 39.00 19.8 w F51 – Pan-STARRS 1, Haleakala MPS 547806
2014 11 22.46318 03 09 38.487 -00 50 26.54 19.8 w F51 – Pan-STARRS 1, Haleakala MPS 547806
2014 11 23.24566 03 08 29.52 -00 39 28.9 19.1 r G45 – Space Surveillance Telescope, Atom Site MPS 562777
2014 11 23.24980 03 08 29.12 -00 39 25.8 19.0 r G45 – Space Surveillance Telescope, Atom Site MPS 562777
2014 11 23.25108 03 08 29.05 -00 39 24.4 19.4 r G45 – Space Surveillance Telescope, Atom Site MPS 562777
2014 11 23.25523 03 08 28.62 -00 39 20.9 19.6 r G45 – Space Surveillance Telescope, Atom Site MPS 562777
2014 11 23.26078 03 08 28.12 -00 39 16.6 19.5 r G45 – Space Surveillance Telescope, Atom Site MPS 562777
2014 11 26.23486 03 04 12.74 +00 04 06.5 19.4 r G45 – Space Surveillance Telescope, Atom Site MPS 562777
2014 11 26.23901 03 04 12.36 +00 04 10.3 19.4 r G45 – Space Surveillance Telescope, Atom Site MPS 562777
2014 11 26.24443 03 04 11.91 +00 04 15.0 19.4 r G45 – Space Surveillance Telescope, Atom Site MPS 562777
2014 11 26.25413 03 04 11.05 +00 04 23.9 19.3 r G45 – Space Surveillance Telescope, Atom Site MPS 562777
2014 12 11.26667 02 47 15.502 +04 11 13.08 19.7 w F51 – Pan-STARRS 1, Haleakala MPS 551655
2014 12 11.28190 02 47 14.696 +04 11 29.07 19.7 w F51 – Pan-STARRS 1, Haleakala MPS 551655
